Hourly Data Report for August 15, 2021

KUGLUKTUK A
NUNAVUT
Current Station Operator: NAVCAN

67°49'00.000" N
115°08'38.000" W
22.60 m
2300903
71938
YCO

Download Data

Hourly Data (August 2021)
Hourly Data Report for August 15, 2021
TIME
LST
Temp Definition
°C
Dew Point Definition
°C
Rel Hum Definition
%
Precip. Amount Definition
mm

Wind Dir Definition
10's deg

Wind Spd Definition
km/h
Visibility Definition
km
Stn Press Definition
kPa
Hmdx Definition


Wind Chill Definition


Weather Definition


00:00 3.7 1.7 87   30 8 24.1 100.79     LegendNANA
01:00 3.5 1.8 89   29 4 24.1 100.81     LegendNANA
02:00 2.9 1.7 92   33 4 24.1 100.82     Cloudy
03:00 3.5 2.2 91   2 5 24.1 100.81     LegendNANA
04:00 3.7 2.3 91   6 4 24.1 100.81     LegendNANA
05:00 4.2 2.9 91   36 1 24.1 100.81     Cloudy
06:00 4.5 2.9 90   15 7 19.3 100.81     LegendNANA
07:00 4.0 2.6 91   15 9 24.1 100.80     LegendNANA
08:00 4.8 2.6 86   13 6 24.1 100.77     Mainly Clear
09:00 5.9 3.3 83   9 4 24.1 100.73     LegendNANA
10:00 7.5 4.4 81   5 11 24.1 100.69     LegendNANA
11:00 7.3 5.3 87   3 15 24.1 100.66     Mainly Clear
12:00 8.4 5.2 81   5 17 24.1 100.63     LegendNANA
13:00 8.7 5.3 79   5 12 24.1 100.62     LegendNANA
14:00 9.0 5.4 78   3 15 24.1 100.61     Mostly Cloudy
15:00 9.3 5.4 76   5 14 24.1 100.58     LegendNANA
16:00 10.5 6.0 74   7 14 24.1 100.56     LegendNANA
17:00 10.5 6.3 75   7 13 24.1 100.52     Mostly Cloudy
18:00 10.3 6.7 78   5 12 24.1 100.52     LegendNANA
19:00 9.8 6.7 81   7 13 24.1 100.49     LegendNANA
20:00 9.2 6.8 85   4 8 24.1 100.49     Mostly Cloudy
21:00 8.4 6.6 88   2 8 24.1 100.47     LegendNANA
22:00 7.3 6.3 93   1 7 24.1 100.44     LegendNANA
23:00 7.5 6.6 94   2 4 24.1 100.43     Mostly Cloudy

Notes on Data Quality.

Legend

  • E = Estimated
  • M = Missing
  • NA = Not Available*
  • [empty] = Indicates an unobserved value
Date modified: